O3B FM4

Last updated on Fri Dec 29 2023 00:03:04 GMT+0000 (Coordinated Universal Time)

1 39189U 13031B 23362.02699897 -.00000024 00000+0 00000+0 0 9999 2 39189 0.0614 5.0465 0002983 268.7442 86.1734 5.00116231192019
UTC large
Height (km)
Speed (km/s)
/
Latitude / Longitude
Inclination (degrees)
Orbital Period (minutes)
Azimuth
Elevation
Range (km)
Doppler Factor

Next 0 passes for location: London (51.5072 / 0.1276)

Sorry there are no passes over London.